KUIPER-00534

导读

KUIPER-00534(NORAD编号69606)是亚马逊柯伊伯低轨互联网星座(Project Kuiper)的组网卫星,于2026年上半年搭载火箭发射入轨,属于该星座的第六批次部署卫星。 该卫星初始部署高度约465公里,经自主变轨后运行在630公里左右的低轨工作轨道,轨道倾角51.9度,配备相控阵天线与星间激光链路,单星下行通信能力最高达1Gbps,延迟控制在30ms级。 作为全球组网的组成部分,其主要承担为网络覆盖不足区域提供高速宽带服务的任务,当前在轨运行状态稳定,是亚马逊完成FCC要求2026年7月前部署半数星座的重要组成单元。

基本信息
目录编号:
69606
目录名称:
KUIPER-00534
国际标识:
2026-140Q
轨道中心:
EARTH
卫星名称:
KUIPER-00534
卫星全名:
KUIPER-00534
卫星状态:
在轨 (已飞行70 天)
发射日期:
2026-06-17 UTC
国别 :
美国 (US)
星等 :
--
轨道信息
数据来源 国际轨道数据
星历时间: 2026-08-26T06:39:46+0800
12小时前
查看轨道信息
半长轴: 6842.869km
偏心率: 0.0012672
轨道倾角: 51.881°
近地点辐角 43.507°
升交点赤经 61.535°
平近点角 316.691°
近地点: 456.06km
远地点: 473.404km
周期: 93.890分钟
每日圈数: 15.337178
详细信息
使用方式:
暂无
2D轨道图
3D轨道图
轨道高度分析图
轨道倾角分析图
轨道综合分析图
查看轨道综合分析图